Regional Weather Roundup
Issued by NWS Goodland, KS

Home | Current Version | Previous Version | Graphics & Text | Print | Product List | Glossary On
Versions: 1 2 3 4 5 6 7 8 9 10 11 12 13 14 15 16 17 18 19 20 21 22 23 24 25 26 27 28 29 30 31 32 33 34 35 36 37 38 39 40 41 42 43 44 45 46 47 48 49 50
000
ASUS43 KGLD 270508
RWRGLD

GOODLAND FORECAST AREA HOURLY WEATHER ROUNDUP
NATIONAL WEATHER SERVICE GOODLAND KS
1000 PM MST SUN FEB 26 2017

...OFFICIAL OBSERVATIONS...

CITY           SKY/WX    TMP DP  RH WIND       PRES   REMARKS
GOODLAND KS    CLEAR     20   7  57 SE8       29.85S
HILL CITY KS   CLEAR     18   7  62 CALM      29.94F
IMPERIAL NEB   CLEAR     21  12  68 SE6       29.89S
MCCOOK NEB     CLEAR     21  10  62 NE3       29.92S
AKRON CO       CLEAR     21  12  68 E12       29.80F WCI   9
BURLINGTON CO  CLEAR     26   8  46 S17       29.82F WCI  13
LIMON CO       CLEAR     22   5  48 S8        29.80S
$$

...UNOFFICIAL OBSERVATIONS...

CITY           SKY/WX    TMP DP  RH WIND       PRES   REMARKS
LENORA KS        N/A     28  32 100 SE6         N/A
SHARON SPRINGS   N/A     24  10  53 SE13        N/A  WCI  12
TRIBUNE KS     CLEAR     30  10  43 E8        29.88S
TRENTON NEB      N/A     24  32 100 E5          N/A
KIT CARSON CO    N/A     28   8  42 CALM        N/A
YUMA CO        FAIR      21  12  68 E6        29.83F
$$




USA.gov is the U.S. government's official web portal to all federal, state and local government web resources and services.